CZ-6A DEB, 56616

Orbit data source: Space-Track

CZ-6A DEB, 56616 is space debris in SSO originally from a launch on Fri, 11 Nov 2022 UTC launched from the Taiyaun Space Center, China (TSC). Debris objects in space refer to the collection of defunct objects orbiting the Earth. Examples of debris include non-operational satellites, rocket bodies, and fragments generated from explosions, collisions, or faulty payload assembly.

Loading next visibility...
Identifier
56616, 2022-151AEQ
Orbit
SSO
Country
Flag of CNCN / PRC
Related business
Manufacturer
SAST
Mission
Spacecraft
Bus & Motor
Unknown
Mass
Unknown
Launch date (UTC)
2022-11-11 (4 years ago)
Launch vehicle
Unknown
Launch site
Taiyaun Space Center, China (TSC)
Object type
Payload
Rocket body
Debris
Shape & HBR
Unknown shape, 0.1 m
Radar Cross Section
Small (<0.1 m²)

Expand to show TLE details & history
Last TLE update: 8 hours ago

TLE from 8 hours ago
0 CZ-6A DEB
1 56616U 22151AEQ 26236.25509697  .00000171  00000-0  11461-3 0  9992
2 56616  98.8230 239.1292 0033375 110.2195 250.2571 14.12948546172088
Epoch: 2026-08-24T06:07Z
TLE epoch observation values (Epoch: 2026-08-24T06:07:20.378Z)
Latitude
-0.00001°
Longitude
174.75487°
Altitude
860.422 km
Speed
7.418 km/s
True Right ascension
15h 56m 31s
True Declination
0° 00' 00"
Sunlit
Object was in daylight at epoch
Visualization orbit readout
Latitude
Unknown
Longitude
Unknown
Altitude
Unknown
Speed
Unknown
Apparent Right ascension
Unknown
Apparent Declination
Unknown
Sunlit
N/A
Visualization observer readout
Local Sidereal Time
05:21:36
Azimuth
Unknown
Elevation
Unknown
Doppler factor
Unknown
Orbital elements
Apogee altitude
870.585 km
Perigee altitude
822.361 km
Semi-major axis
7,224.61 km
Eccentricity
0.00334
Inclination
98.823°
RAAN
239.1292°
Arg. of periapsis
110.2195°
True anomaly
249.89764°
Mean anomaly
250.2571°
Eccentric anomaly
250.07732°
Mean motion
3.53445 °/min
Orbital period
101.85 mins
BSTAR
0.00011461
Loading maneuver chart data...
Computing Atmospheric mass density...
Loading historical data...
Loading historical data...
Loading historical data...
Loading historical data...
Loading historical data...
Loading historical data...
Loading historical data...

Documentation

Showing up to 5 results
|